STARLINK-34520

导读 | 星芒AI

STARLINK-34520 是 SpaceX Starlink 项目中的一颗低轨通信卫星,属于第三代 Starlink 卫星(也称 v1.5 或 Block V)。该卫星于 2023 年发射,旨在为全球提供高速互联网服务。它运行在约 550 公里的轨道高度,配备先进激光通信系统和多频段通信设备,以提升网络性能和覆盖范围。STARLINK-34520 是 SpaceX 扩展其全球宽带网络计划的一部分,支持偏远地区互联网接入,并增强整体星座的冗余与稳定性。

基本信息
目录编号:
64486
目录名称:
STARLINK-34520
国际标识:
2025-133Q
轨道中心:
EARTH
卫星名称:
STARLINK-34520
卫星全名:
STARLINK-34520
卫星状态:
在轨 (已飞行139 天)
发射日期:
2025-06-23 UTC
国别 :
美国 (US)
星等 :
--
轨道信息
数据来源 国际轨道数据
星历时间: 2025-11-09T02:10:36+0800
20小时前
查看轨道信息
半长轴: 6825.392km
偏心率: 0.0001265
轨道倾角: 53.160°
近地点辐角 101.788°
升交点赤经 319.189°
平近点角 258.327°
近地点: 446.393km
远地点: 448.121km
周期: 93.530分钟
每日圈数: 15.396124
详细信息
使用方式:
暂无
2D轨道图
3D轨道图
轨道高度分析图
轨道倾角分析图
轨道综合分析图
查看轨道综合分析图